• In Germany
  • List of Countries
  • For 7 days
  • Water Temperature
  • Satellite Maps
  • Weather Map
  • Weather Widgets
  • user-avatar
    Login

    Hourly Weather Hurghada

    Today, 22 September, Saturday

    Time Temperature Precipitation Wind Pressure Humidity
    00:00 +27°C° 0 mm 3 mps 683 mmHg 33%
    01:00 +26°C° 0 mm 3 mps 682 mmHg 34%
    02:00 +26°C° 0 mm 3 mps 682 mmHg 34%
    03:00 +25°C° 0 mm 3 mps 682 mmHg 35%
    04:00 +25°C° 0 mm 3 mps 682 mmHg 36%
    05:00 +24°C° 0 mm 3 mps 682 mmHg 37%
    06:00 +26°C° 0 mm 3 mps 682 mmHg 34%
    07:00 +27°C° 0 mm 4 mps 683 mmHg 31%
    08:00 +28°C° 0 mm 4 mps 683 mmHg 28%
    09:00 +30°C° 0 mm 4 mps 684 mmHg 25%
    10:00 +33°C° 0 mm 4 mps 684 mmHg 21%
    11:00 +34°C° 0 mm 4 mps 684 mmHg 18%
    12:00 +35°C° 0 mm 4 mps 684 mmHg 17%
    13:00 +36°C° 0 mm 4 mps 684 mmHg 16%
    14:00 +37°C° 0 mm 5 mps 684 mmHg 15%
    15:00 +36°C° 0 mm 5 mps 684 mmHg 16%
    16:00 +35°C° 0 mm 5 mps 683 mmHg 18%
    17:00 +34°C° 0 mm 5 mps 683 mmHg 19%
    18:00 +33°C° 0 mm 4 mps 683 mmHg 22%
    19:00 +31°C° 0 mm 3 mps 683 mmHg 24%
    20:00 +29°C° 0 mm 3 mps 683 mmHg 27%
    21:00 +29°C° 0 mm 3 mps 683 mmHg 27%
    22:00 +28°C° 0 mm 3 mps 683 mmHg 28%
    23:00 +28°C° 0 mm 2 mps 684 mmHg 28%

    Tomorrow, 23 September, Sunday

    Time Temperature Precipitation Wind Pressure Humidity
    00:00 +27°C° 0 mm 3 mps 683 mmHg 30%
    01:00 +27°C° 0 mm 3 mps 683 mmHg 31%
    02:00 +26°C° 0 mm 3 mps 683 mmHg 33%
    03:00 +26°C° 0 mm 3 mps 683 mmHg 35%
    04:00 +25°C° 0 mm 3 mps 683 mmHg 37%
    05:00 +25°C° 0 mm 4 mps 682 mmHg 38%
    06:00 +26°C° 0 mm 4 mps 683 mmHg 36%
    07:00 +28°C° 0 mm 4 mps 683 mmHg 34%
    08:00 +29°C° 0 mm 4 mps 684 mmHg 32%
    09:00 +30°C° 0 mm 4 mps 684 mmHg 28%
    10:00 +33°C° 0 mm 4 mps 685 mmHg 25%
    11:00 +35°C° 0 mm 4 mps 685 mmHg 21%
    12:00 +35°C° 0 mm 4 mps 685 mmHg 20%
    13:00 +36°C° 0 mm 4 mps 684 mmHg 19%
    14:00 +37°C° 0 mm 4 mps 684 mmHg 18%
    15:00 +36°C° 0 mm 4 mps 684 mmHg 19%
    16:00 +35°C° 0 mm 5 mps 683 mmHg 21%
    17:00 +35°C° 0 mm 5 mps 683 mmHg 23%
    18:00 +33°C° 0 mm 4 mps 683 mmHg 26%
    19:00 +31°C° 0 mm 3 mps 683 mmHg 29%
    20:00 +29°C° 0 mm 3 mps 684 mmHg 32%
    21:00 +29°C° 0 mm 3 mps 684 mmHg 33%
    22:00 +28°C° 0 mm 3 mps 684 mmHg 33%
    23:00 +28°C° 0 mm 2 mps 684 mmHg 34%

    Day after tomorrow, 24 September, Monday

    Time Temperature Precipitation Wind Pressure Humidity
    00:00 +27°C° 0 mm 3 mps 683 mmHg 35%
    01:00 +27°C° 0 mm 3 mps 683 mmHg 36%
    02:00 +26°C° 0 mm 3 mps 682 mmHg 37%
    03:00 +26°C° 0 mm 3 mps 682 mmHg 39%
    04:00 +25°C° 0 mm 3 mps 682 mmHg 40%
    05:00 +25°C° 0 mm 3 mps 682 mmHg 42%
    06:00 +26°C° 0 mm 3 mps 683 mmHg 38%
    07:00 +28°C° 0 mm 3 mps 683 mmHg 35%
    08:00 +29°C° 0 mm 3 mps 684 mmHg 32%
    09:00 +31°C° 0 mm 3 mps 684 mmHg 28%
    10:00 +33°C° 0 mm 3 mps 684 mmHg 24%
    11:00 +35°C° 0 mm 3 mps 684 mmHg 21%
    12:00 +36°C° 0 mm 3 mps 684 mmHg 19%
    13:00 +37°C° 0 mm 4 mps 684 mmHg 17%
    14:00 +38°C° 0 mm 4 mps 683 mmHg 16%
    15:00 +37°C° 0 mm 4 mps 683 mmHg 17%
    16:00 +36°C° 0 mm 4 mps 683 mmHg 19%
    17:00 +35°C° 0 mm 4 mps 683 mmHg 21%
    18:00 +34°C° 0 mm 4 mps 683 mmHg 24%
    19:00 +31°C° 0 mm 3 mps 683 mmHg 27%
    20:00 +30°C° 0 mm 2 mps 683 mmHg 30%
    21:00 +29°C° 0 mm 2 mps 683 mmHg 30%
    22:00 +28°C° 0 mm 2 mps 683 mmHg 31%
    23:00 +28°C° 0 mm 2 mps 683 mmHg 31%

    25 September, Tuesday

    Time Temperature Precipitation Wind Pressure Humidity
    00:00 +27°C° 0 mm 2 mps 682 mmHg 32%
    01:00 +27°C° 0 mm 2 mps 682 mmHg 33%
    02:00 +26°C° 0 mm 2 mps 681 mmHg 34%
    03:00 +26°C° 0 mm 3 mps 681 mmHg 35%
    04:00 +25°C° 0 mm 3 mps 681 mmHg 36%
    05:00 +25°C° 0 mm 3 mps 681 mmHg 37%
    06:00 +27°C° 0 mm 3 mps 682 mmHg 34%
    07:00 +28°C° 0 mm 3 mps 682 mmHg 31%
    08:00 +30°C° 0 mm 3 mps 683 mmHg 28%
    09:00 +32°C° 0 mm 4 mps 683 mmHg 24%
    10:00 +34°C° 0 mm 4 mps 683 mmHg 21%
    11:00 +36°C° 0 mm 4 mps 683 mmHg 17%
    12:00 +36°C° 0 mm 4 mps 683 mmHg 16%
    13:00 +37°C° 0 mm 5 mps 683 mmHg 14%
    14:00 +39°C° 0 mm 5 mps 682 mmHg 13%
    15:00 +37°C° 0 mm 5 mps 682 mmHg 15%
    16:00 +36°C° 0 mm 5 mps 682 mmHg 16%
    17:00 +35°C° 0 mm 5 mps 682 mmHg 17%
    18:00 +34°C° 0 mm 4 mps 682 mmHg 20%
    19:00 +32°C° 0 mm 4 mps 682 mmHg 22%
    20:00 +29°C° 0 mm 3 mps 682 mmHg 25%
    21:00 +29°C° 0 mm 2 mps 682 mmHg 25%
    22:00 +28°C° 0 mm 2 mps 682 mmHg 26%
    23:00 +28°C° 0 mm 2 mps 682 mmHg 26%

    26 September, Wednesday

    Time Temperature Precipitation Wind Pressure Humidity
    00:00 +27°C° 0 mm 2 mps 682 mmHg 26%
    01:00 +27°C° 0 mm 2 mps 681 mmHg 27%
    02:00 +26°C° 0 mm 2 mps 681 mmHg 27%
    03:00 +26°C° 0 mm 3 mps 681 mmHg 28%
    04:00 +25°C° 0 mm 3 mps 681 mmHg 30%
    05:00 +25°C° 0 mm 3 mps 681 mmHg 31%
    06:00 +26°C° 0 mm 3 mps 681 mmHg 29%
    07:00 +28°C° 0 mm 3 mps 682 mmHg 27%
    08:00 +29°C° 0 mm 4 mps 682 mmHg 25%
    09:00 +32°C° 0 mm 4 mps 683 mmHg 21%
    10:00 +33°C° 0 mm 4 mps 683 mmHg 18%
    11:00 +35°C° 0 mm 4 mps 683 mmHg 14%
    12:00 +36°C° 0 mm 4 mps 683 mmHg 13%
    13:00 +37°C° 0 mm 5 mps 682 mmHg 12%
    14:00 +37°C° 0 mm 5 mps 682 mmHg 11%
    15:00 +36°C° 0 mm 5 mps 682 mmHg 13%
    16:00 +35°C° 0 mm 5 mps 682 mmHg 14%
    17:00 +34°C° 0 mm 5 mps 682 mmHg 16%
    18:00 +33°C° 0 mm 4 mps 682 mmHg 18%
    19:00 +30°C° 0 mm 3 mps 682 mmHg 20%
    20:00 +29°C° 0 mm 2 mps 682 mmHg 23%
    21:00 +28°C° 0 mm 2 mps 682 mmHg 23%
    22:00 +28°C° 0 mm 2 mps 682 mmHg 24%
    23:00 +27°C° 0 mm 2 mps 682 mmHg 24%

    27 September, Thursday

    Time Temperature Precipitation Wind Pressure Humidity
    00:00 +27°C° 0 mm 3 mps 681 mmHg 25%
    01:00 +27°C° 0 mm 3 mps 681 mmHg 26%
    02:00 +26°C° 0 mm 3 mps 681 mmHg 27%
    03:00 +25°C° 0 mm 3 mps 681 mmHg 30%
    04:00 +25°C° 0 mm 3 mps 681 mmHg 32%
    05:00 +24°C° 0 mm 3 mps 681 mmHg 35%
    06:00 +25°C° 0 mm 3 mps 681 mmHg 34%
    07:00 +26°C° 0 mm 3 mps 682 mmHg 33%
    08:00 +27°C° 0 mm 3 mps 682 mmHg 32%
    09:00 +29°C° 0 mm 4 mps 682 mmHg 28%
    10:00 +30°C° 0 mm 4 mps 683 mmHg 24%
    11:00 +33°C° 0 mm 4 mps 683 mmHg 20%
    12:00 +34°C° 0 mm 4 mps 683 mmHg 18%
    13:00 +35°C° 0 mm 5 mps 682 mmHg 17%
    14:00 +35°C° 0 mm 5 mps 682 mmHg 15%
    15:00 +34°C° 0 mm 5 mps 682 mmHg 17%
    16:00 +33°C° 0 mm 5 mps 682 mmHg 19%
    17:00 +32°C° 0 mm 4 mps 682 mmHg 20%
    18:00 +30°C° 0 mm 4 mps 682 mmHg 23%
    19:00 +29°C° 0 mm 4 mps 682 mmHg 25%
    20:00 +28°C° 0 mm 3 mps 682 mmHg 28%
    21:00 +27°C° 0 mm 3 mps 682 mmHg 29%
    22:00 +27°C° 0 mm 3 mps 682 mmHg 29%
    23:00 +26°C° 0 mm 2 mps 682 mmHg 30%
    Show more